Darstellungsparameter: Aktuell verwendete Einstellungen:
Skalierung der Graphiken ... ?
xyx+y,   Skalierungsfaktor:      Skalierung: Modus: x, Faktor: 1
Darstellungszeitraum ... ?
Vom - - bis: - -   Zeitraum: 28.09.2010 - 02.10.2010
Min/Max/Avg-Anzeige ... ?
Zeige MMA aktuell
Zeige MMA Monat
Zeige MMA alles
Zeige --A aktuell
Zeige --A Monat
Zeige --A alles
Keine MMA-Anzeige
MMA:
Average (ber die Originaldaten)
MMA-Basis: 23.02.2003 - 30.09.2020
Quicknavigation für Darstellung... ?
Tage:      1T, 2T, 3T, 5T -1T -2T -3T -5T +1T +2T +3T +5T
Wochen: 1W, 2W, 3W -1W -2W -3W +1W +2W +3W
Monate: 1M, 3M, 6M -1M -3M -6M +1M +3M +6M
Jahre:    1J, 3J, 5J, 10J -1J -3J -5J -10J +1J +3J +5J +10J
Nutze für die Darstellung ... ?
Originaldaten oder Mittelwerte auf ...
Stundenbasis Tagesbasis Wochenbasis
Monatsbasis Jahresbasis      Datenbasis: Original-Daten
Darstellen als:
Statistik (Auto) Statistik J:M      Darstellung:
Zur Graphik,    zurück zur Übersicht aller Sensoren.
 
Tabellarische Datenbersicht: ?
 
Sensor: Nr:Datum:Temp:Abs-Feuchte:Windchill:Wind:
Aussen-T/F 1 28-09-2010 00:00:10 10.1 C 8.7 g/m*3 10.1 C 0 km/h
2 28-09-2010 00:12:10 10 C 8.64 g/m*3 10 C 0 km/h
3 28-09-2010 00:24:10 10 C 8.64 g/m*3 10 C 0 km/h
4 28-09-2010 00:36:10 10 C 8.64 g/m*3 10 C 0 km/h
5 28-09-2010 00:48:10 9.9 C 8.78 g/m*3 9.9 C 0 km/h
6 28-09-2010 01:00:10 10 C 8.74 g/m*3 10 C 0 km/h
7 28-09-2010 01:12:11 10 C 8.74 g/m*3 10 C 0 km/h
8 28-09-2010 01:24:11 10 C 8.74 g/m*3 10 C 0 km/h
9 28-09-2010 01:36:11 10 C 8.74 g/m*3 10 C 0 km/h
10 28-09-2010 01:48:11 9.9 C 8.78 g/m*3 9.9 C 0 km/h
11 28-09-2010 02:00:11 9.9 C 8.78 g/m*3 9.9 C 0 km/h
12 28-09-2010 02:12:11 9.9 C 8.78 g/m*3 9.9 C 0 km/h
13 28-09-2010 02:24:11 9.9 C 8.78 g/m*3 9.9 C 0 km/h
14 28-09-2010 02:36:11 9.9 C 8.78 g/m*3 9.9 C 0 km/h
15 28-09-2010 02:48:11 9.9 C 8.78 g/m*3 9.9 C 0 km/h
16 28-09-2010 03:00:11 9.9 C 8.87 g/m*3 9.9 C 0 km/h
17 28-09-2010 03:12:11 9.9 C 8.87 g/m*3 9.9 C 0 km/h
18 28-09-2010 03:24:11 9.9 C 8.87 g/m*3 9.9 C 0 km/h
19 28-09-2010 03:36:12 9.9 C 8.87 g/m*3 9.9 C 0 km/h
20 28-09-2010 03:48:12 9.9 C 8.87 g/m*3 9.9 C 0 km/h
21 28-09-2010 04:00:12 9.9 C 8.87 g/m*3 9.9 C 0 km/h
22 28-09-2010 04:12:12 9.9 C 8.87 g/m*3 9.9 C 0 km/h
23 28-09-2010 04:24:12 9.9 C 8.87 g/m*3 9.9 C 0 km/h
24 28-09-2010 04:36:12 9.9 C 8.87 g/m*3 9.9 C 0 km/h
25 28-09-2010 04:48:12 10 C 8.83 g/m*3 10 C 0 km/h
Sensor: Nr:Datum:Temp:Abs-Feuchte:Windchill:Wind:
Aussen-T/F 26 28-09-2010 05:00:12 10 C 8.93 g/m*3 10 C 0 km/h
27 28-09-2010 05:12:12 10 C 8.93 g/m*3 10 C 0 km/h
28 28-09-2010 05:24:12 10 C 8.93 g/m*3 10 C 0 km/h
29 28-09-2010 05:36:12 10 C 8.93 g/m*3 10 C 0 km/h
30 28-09-2010 05:48:12 10 C 8.93 g/m*3 10 C 0 km/h
31 28-09-2010 06:00:12 10.1 C 8.98 g/m*3 10.1 C 0 km/h
32 28-09-2010 06:12:12 10.1 C 8.98 g/m*3 10.1 C 0 km/h
33 28-09-2010 06:24:12 10.1 C 8.98 g/m*3 10.1 C 0 km/h
34 28-09-2010 06:36:12 10.1 C 8.98 g/m*3 10.1 C 0 km/h
35 28-09-2010 06:48:12 10 C 8.93 g/m*3 10 C 0 km/h
36 28-09-2010 07:00:12 10 C 8.93 g/m*3 10 C 0 km/h
37 28-09-2010 07:12:12 10 C 8.93 g/m*3 10 C 0 km/h
38 28-09-2010 07:24:12 10 C 8.93 g/m*3 10 C 0 km/h
39 28-09-2010 07:36:13 10 C 8.93 g/m*3 10 C 0 km/h
40 28-09-2010 07:48:01 10 C 8.93 g/m*3 10 C 0 km/h
41 28-09-2010 08:00:01 10 C 8.93 g/m*3 10 C 0 km/h
42 28-09-2010 08:12:02 10 C 8.93 g/m*3 10 C 0 km/h
43 28-09-2010 08:24:02 10 C 8.93 g/m*3 10 C 0 km/h
44 28-09-2010 08:36:02 10.1 C 8.98 g/m*3 10.1 C 0 km/h
45 28-09-2010 08:48:03 10.1 C 8.98 g/m*3 10.1 C 0 km/h
46 28-09-2010 09:00:03 10.1 C 8.98 g/m*3 10.1 C 0 km/h
47 28-09-2010 09:12:03 10.2 C 9.04 g/m*3 10.2 C 0 km/h
48 28-09-2010 09:24:02 10.2 C 9.04 g/m*3 10.2 C 0 km/h
49 28-09-2010 09:36:02 10.3 C 9.1 g/m*3 10.3 C 0 km/h
50 28-09-2010 09:48:02 10.4 C 9.16 g/m*3 10.4 C 0 km/h
Sensor: Nr:Datum:Temp:Abs-Feuchte:Windchill:Wind:
Aussen-T/F 51 28-09-2010 10:00:02 10.4 C 9.16 g/m*3 10.4 C 0 km/h
52 28-09-2010 10:12:02 10.5 C 9.21 g/m*3 10.5 C 0 km/h
53 28-09-2010 10:24:01 10.5 C 9.21 g/m*3 10.5 C 0 km/h
54 28-09-2010 10:36:02 10.7 C 9.33 g/m*3 10.7 C 0 km/h
55 28-09-2010 10:48:02 10.8 C 9.39 g/m*3 10.8 C 0 km/h
56 28-09-2010 11:00:02 11 C 9.51 g/m*3 11 C 0 km/h
57 28-09-2010 11:12:02 11 C 9.51 g/m*3 11 C 0 km/h
58 28-09-2010 11:24:02 11.2 C 9.63 g/m*3 11.2 C 0 km/h
59 28-09-2010 11:36:02 11.3 C 9.69 g/m*3 11.3 C 0 km/h
60 28-09-2010 11:48:02 11.4 C 9.75 g/m*3 11.4 C 0 km/h
61 28-09-2010 12:00:02 11.4 C 9.75 g/m*3 11.4 C 0 km/h
62 28-09-2010 12:12:02 11.4 C 9.65 g/m*3 11.4 C 0 km/h
63 28-09-2010 12:24:02 11.4 C 9.65 g/m*3 11.4 C 0 km/h
64 28-09-2010 12:36:02 11.5 C 9.71 g/m*3 11.5 C 0 km/h
65 28-09-2010 12:48:02 11.7 C 9.83 g/m*3 11.7 C 0 km/h
66 28-09-2010 13:00:02 11.6 C 9.67 g/m*3 11.6 C 0 km/h
67 28-09-2010 13:12:02 11.6 C 9.67 g/m*3 11.6 C 0 km/h
68 28-09-2010 13:24:03 11.8 C 9.79 g/m*3 11.8 C 0 km/h
69 28-09-2010 13:36:02 11.8 C 9.68 g/m*3 11.8 C 0 km/h
70 28-09-2010 13:48:03 11.9 C 9.74 g/m*3 11.9 C 0 km/h
71 28-09-2010 14:00:03 11.9 C 9.74 g/m*3 11.9 C 0 km/h
72 28-09-2010 14:12:02 11.8 C 9.68 g/m*3 11.8 C 0 km/h
73 28-09-2010 14:24:02 11.7 C 9.62 g/m*3 11.7 C 0 km/h
74 28-09-2010 14:36:02 11.7 C 9.62 g/m*3 11.7 C 0 km/h
75 28-09-2010 14:48:02 11.7 C 9.62 g/m*3 11.7 C 0 km/h
Sensor: Nr:Datum:Temp:Abs-Feuchte:Windchill:Wind:
Aussen-T/F 76 28-09-2010 15:00:02 11.7 C 9.62 g/m*3 11.7 C 0 km/h
77 28-09-2010 15:12:02 11.7 C 9.73 g/m*3 11.7 C 0 km/h
78 28-09-2010 15:24:02 11.7 C 9.73 g/m*3 11.7 C 0 km/h
79 28-09-2010 15:36:02 11.8 C 9.79 g/m*3 11.8 C 0 km/h
80 28-09-2010 15:48:02 11.8 C 9.79 g/m*3 11.8 C 0 km/h
81 28-09-2010 16:00:02 11.8 C 9.79 g/m*3 11.8 C 0 km/h
82 28-09-2010 16:12:01 11.8 C 9.79 g/m*3 11.8 C 0 km/h
83 28-09-2010 16:24:01 11.8 C 9.79 g/m*3 11.8 C 0 km/h
84 28-09-2010 16:36:02 11.9 C 9.96 g/m*3 11.9 C 0 km/h
85 28-09-2010 16:48:02 11.9 C 9.96 g/m*3 11.9 C 0 km/h
86 28-09-2010 17:00:02 11.9 C 9.96 g/m*3 11.9 C 0 km/h
87 28-09-2010 17:12:02 12 C 10.02 g/m*3 12 C 0 km/h
88 28-09-2010 17:24:02 12 C 10.02 g/m*3 12 C 0 km/h
89 28-09-2010 17:36:02 12 C 10.02 g/m*3 12 C 0 km/h
90 28-09-2010 17:48:02 12 C 10.02 g/m*3 12 C 0 km/h
91 28-09-2010 18:00:02 11.9 C 9.96 g/m*3 11.9 C 0 km/h
92 28-09-2010 18:12:02 11.9 C 9.96 g/m*3 11.9 C 0 km/h
93 28-09-2010 18:24:02 11.9 C 10.06 g/m*3 11.9 C 0 km/h
94 28-09-2010 18:36:02 11.8 C 10 g/m*3 11.8 C 0 km/h
95 28-09-2010 18:48:01 11.8 C 10 g/m*3 11.8 C 0 km/h
96 28-09-2010 19:00:01 11.8 C 10 g/m*3 11.8 C 0 km/h
97 28-09-2010 19:12:02 11.7 C 9.94 g/m*3 11.7 C 0 km/h
98 28-09-2010 19:24:01 11.7 C 9.94 g/m*3 11.7 C 0 km/h
99 28-09-2010 19:36:01 11.7 C 9.94 g/m*3 11.7 C 0 km/h
100 28-09-2010 19:48:01 11.7 C 9.94 g/m*3 11.7 C 0 km/h
Sensor: Nr:Datum:Temp:Abs-Feuchte:Windchill:Wind:
Aussen-T/F 101 28-09-2010 20:00:01 11.6 C 9.87 g/m*3 11.6 C 0 km/h
102 28-09-2010 20:12:02 11.6 C 9.87 g/m*3 11.6 C 0 km/h
103 28-09-2010 20:24:02 11.6 C 9.87 g/m*3 11.6 C 0 km/h
104 28-09-2010 20:36:01 11.6 C 9.87 g/m*3 11.6 C 0 km/h
105 28-09-2010 20:48:01 11.6 C 9.87 g/m*3 11.6 C 0 km/h
106 28-09-2010 21:00:01 11.6 C 9.87 g/m*3 11.6 C 0 km/h
107 28-09-2010 21:12:01 11.6 C 9.87 g/m*3 11.6 C 0 km/h
108 28-09-2010 21:24:02 11.6 C 9.87 g/m*3 11.6 C 0 km/h
109 28-09-2010 21:36:01 11.5 C 9.81 g/m*3 11.5 C 0 km/h
110 28-09-2010 21:48:03 11.6 C 9.87 g/m*3 11.6 C 0 km/h
111 28-09-2010 22:00:03 11.6 C 9.87 g/m*3 11.6 C 0 km/h
112 28-09-2010 22:12:02 11.6 C 9.87 g/m*3 11.6 C 0 km/h
113 28-09-2010 22:24:03 11.6 C 9.87 g/m*3 11.6 C 0 km/h
114 28-09-2010 22:36:02 11.7 C 9.94 g/m*3 11.7 C 0 km/h
115 28-09-2010 22:48:03 11.6 C 9.87 g/m*3 11.6 C 0 km/h
116 28-09-2010 23:00:03 11.6 C 9.87 g/m*3 11.6 C 0 km/h
117 28-09-2010 23:12:02 11.6 C 9.87 g/m*3 11.6 C 0 km/h
118 28-09-2010 23:24:02 11.6 C 9.87 g/m*3 11.6 C 0 km/h
119 28-09-2010 23:36:02 11.6 C 9.87 g/m*3 11.6 C 0 km/h
120 28-09-2010 23:48:02 11.6 C 9.87 g/m*3 11.6 C 0 km/h
121 29-09-2010 00:00:02 11.6 C 9.87 g/m*3 11.6 C 0 km/h
122 29-09-2010 00:12:02 11.7 C 9.94 g/m*3 11.7 C 0 km/h
123 29-09-2010 00:24:02 11.6 C 9.87 g/m*3 11.6 C 0 km/h
124 29-09-2010 00:36:02 11.7 C 9.94 g/m*3 11.7 C 0 km/h
125 29-09-2010 00:48:02 11.6 C 9.87 g/m*3 11.6 C 0 km/h
Sensor: Nr:Datum:Temp:Abs-Feuchte:Windchill:Wind:
Aussen-T/F 126 29-09-2010 01:00:02 11.7 C 9.94 g/m*3 11.7 C 0 km/h
127 29-09-2010 01:12:03 11.6 C 9.87 g/m*3 11.6 C 0 km/h
128 29-09-2010 01:24:02 11.6 C 9.87 g/m*3 11.6 C 0 km/h
129 29-09-2010 01:36:02 11.6 C 9.87 g/m*3 11.6 C 0 km/h
130 29-09-2010 01:48:01 11.6 C 9.87 g/m*3 11.6 C 0 km/h
131 29-09-2010 02:00:01 11.6 C 9.87 g/m*3 11.6 C 0 km/h
132 29-09-2010 02:12:02 11.6 C 9.87 g/m*3 11.6 C 0 km/h
133 29-09-2010 02:24:01 11.5 C 9.81 g/m*3 11.5 C 0 km/h
134 29-09-2010 02:36:02 11.5 C 9.81 g/m*3 11.5 C 0 km/h
135 29-09-2010 02:48:01 11.6 C 9.87 g/m*3 11.6 C 0 km/h
136 29-09-2010 03:00:01 11.4 C 9.75 g/m*3 11.4 C 0 km/h
137 29-09-2010 03:12:01 11.3 C 9.69 g/m*3 11.3 C 0 km/h
138 29-09-2010 03:24:02 11.4 C 9.75 g/m*3 11.4 C 0 km/h
139 29-09-2010 03:36:01 11.7 C 9.94 g/m*3 11.7 C 0 km/h
140 29-09-2010 03:48:01 11.6 C 9.87 g/m*3 11.6 C 0 km/h
141 29-09-2010 04:00:01 11.6 C 9.87 g/m*3 11.6 C 0 km/h
142 29-09-2010 04:12:02 11.6 C 9.87 g/m*3 11.6 C 0 km/h
143 29-09-2010 04:24:01 11.6 C 9.87 g/m*3 11.6 C 0 km/h
144 29-09-2010 04:36:01 11.3 C 9.69 g/m*3 11.3 C 0 km/h
145 29-09-2010 04:48:01 11.3 C 9.69 g/m*3 11.3 C 0 km/h
146 29-09-2010 05:00:01 11.4 C 9.75 g/m*3 11.4 C 0 km/h
147 29-09-2010 05:12:02 11.4 C 9.75 g/m*3 11.4 C 0 km/h
148 29-09-2010 05:24:01 11.4 C 9.75 g/m*3 11.4 C 0 km/h
149 29-09-2010 05:36:01 11.4 C 9.75 g/m*3 11.4 C 0 km/h
150 29-09-2010 05:48:01 11.4 C 9.75 g/m*3 11.4 C 0 km/h
Sensor: Nr:Datum:Temp:Abs-Feuchte:Windchill:Wind:
Aussen-T/F 151 29-09-2010 06:00:01 11.7 C 9.94 g/m*3 11.7 C 0 km/h
152 29-09-2010 06:12:01 11.6 C 9.87 g/m*3 11.6 C 0 km/h
153 29-09-2010 06:24:02 11.5 C 9.81 g/m*3 11.5 C 0 km/h
154 29-09-2010 06:36:01 11.5 C 9.81 g/m*3 11.5 C 0 km/h
155 29-09-2010 06:48:02 11.3 C 9.69 g/m*3 11.3 C 0 km/h
156 29-09-2010 07:00:02 11.1 C 9.57 g/m*3 11.1 C 0 km/h
157 29-09-2010 07:12:01 10.8 C 9.39 g/m*3 10.8 C 0 km/h
158 29-09-2010 07:24:02 11 C 9.51 g/m*3 11 C 0 km/h
159 29-09-2010 07:36:01 11.2 C 9.63 g/m*3 11.2 C 0 km/h
160 29-09-2010 07:48:02 11.1 C 9.57 g/m*3 11.1 C 0 km/h
161 29-09-2010 08:00:02 11 C 9.51 g/m*3 11 C 0 km/h
162 29-09-2010 08:12:01 11.2 C 9.63 g/m*3 11.2 C 0 km/h
163 29-09-2010 08:24:01 11.2 C 9.63 g/m*3 11.2 C 0 km/h
164 29-09-2010 08:36:01 11.1 C 9.57 g/m*3 11.1 C 0 km/h
165 29-09-2010 08:48:02 11.4 C 9.75 g/m*3 11.4 C 0 km/h
166 29-09-2010 09:00:02 11.6 C 9.87 g/m*3 11.6 C 0 km/h
167 29-09-2010 09:12:01 11.2 C 9.53 g/m*3 11.2 C 0 km/h
168 29-09-2010 09:24:01 10.8 C 9.19 g/m*3 10.8 C 0 km/h
169 29-09-2010 09:36:02 11.7 C 9.62 g/m*3 11.7 C 0 km/h
170 29-09-2010 09:48:01 11.9 C 9.64 g/m*3 11.9 C 0 km/h
171 29-09-2010 10:00:01 12.1 C 9.22 g/m*3 12.1 C 0 km/h
172 29-09-2010 10:12:02 12.5 C 8.91 g/m*3 12.5 C 0 km/h
173 29-09-2010 10:24:01 12.9 C 8.79 g/m*3 12.9 C 0 km/h
174 29-09-2010 10:36:02 13.4 C 8.95 g/m*3 13.4 C 0 km/h
175 29-09-2010 10:48:01 13.7 C 9 g/m*3 13.7 C 0 km/h
Sensor: Nr:Datum:Temp:Abs-Feuchte:Windchill:Wind:
Aussen-T/F 176 29-09-2010 11:00:01 13.8 C 8.94 g/m*3 13.8 C 0 km/h
177 29-09-2010 11:12:02 13.7 C 8.53 g/m*3 13.7 C 0 km/h
178 29-09-2010 11:24:01 13.8 C 8.46 g/m*3 13.8 C 0 km/h
179 29-09-2010 11:36:01 14.1 C 8.01 g/m*3 14.1 C 0 km/h
180 29-09-2010 11:48:01 14.4 C 8.16 g/m*3 14.4 C 0 km/h
181 29-09-2010 12:00:01 14.5 C 8.21 g/m*3 14.5 C 0 km/h
182 29-09-2010 12:12:01 14.6 C 8.01 g/m*3 14.6 C 0 km/h
183 29-09-2010 12:24:01 14.1 C 7.52 g/m*3 14.1 C 0 km/h
184 29-09-2010 12:36:01 14 C 8.08 g/m*3 14 C 0 km/h
185 29-09-2010 12:48:01 14.8 C 8.36 g/m*3 14.8 C 0 km/h
186 29-09-2010 13:00:01 15.4 C 8.15 g/m*3 15.4 C 0 km/h
187 29-09-2010 13:12:01 15.7 C 7.89 g/m*3 15.7 C 0 km/h
188 29-09-2010 13:24:02 15.8 C 7.81 g/m*3 15.8 C 0 km/h
189 29-09-2010 13:36:01 15.9 C 7.99 g/m*3 15.9 C 0 km/h
190 29-09-2010 13:48:02 15.9 C 7.58 g/m*3 15.9 C 0 km/h
191 29-09-2010 14:00:02 16.3 C 7.35 g/m*3 16.3 C 0 km/h
192 29-09-2010 14:12:01 15.6 C 7.58 g/m*3 15.6 C 0 km/h
193 29-09-2010 14:24:02 15.8 C 7.94 g/m*3 15.8 C 0 km/h
194 29-09-2010 14:36:01 17.4 C 7.85 g/m*3 17.4 C 0 km/h
195 29-09-2010 14:48:02 19 C 7.33 g/m*3 19 C 0 km/h
196 29-09-2010 15:00:02 18.8 C 6.76 g/m*3 18.8 C 0 km/h
197 29-09-2010 15:12:01 18.8 C 6.93 g/m*3 18.8 C 0 km/h
198 29-09-2010 15:24:01 18.9 C 6.97 g/m*3 18.9 C 0 km/h
199 29-09-2010 15:36:02 19.6 C 6.92 g/m*3 19.6 C 0 km/h
200 29-09-2010 15:48:01 19.7 C 6.79 g/m*3 19.7 C 0 km/h
Sensor: Nr:Datum:Temp:Abs-Feuchte:Windchill:Wind:
Aussen-T/F 201 29-09-2010 16:00:02 18.8 C 7.41 g/m*3 18.8 C 0 km/h
202 29-09-2010 16:12:01 18.1 C 7.26 g/m*3 18.1 C 0 km/h
203 29-09-2010 16:24:01 18.1 C 7.57 g/m*3 18.1 C 0 km/h
204 29-09-2010 16:36:02 17.6 C 7.95 g/m*3 17.6 C 0 km/h
205 29-09-2010 16:48:01 18.1 C 7.88 g/m*3 18.1 C 0 km/h
206 29-09-2010 17:00:02 19 C 7.33 g/m*3 19 C 0 km/h
207 29-09-2010 17:12:01 19.4 C 7.01 g/m*3 19.4 C 0 km/h
208 29-09-2010 17:24:01 18.6 C 7.16 g/m*3 18.6 C 0 km/h
209 29-09-2010 17:36:02 17.6 C 7.95 g/m*3 17.6 C 0 km/h
210 29-09-2010 17:48:01 16.9 C 8.05 g/m*3 16.9 C 0 km/h
211 29-09-2010 18:00:01 15.9 C 7.58 g/m*3 15.9 C 0 km/h
212 29-09-2010 18:12:04 15.2 C 7.92 g/m*3 15.2 C 0 km/h
213 29-09-2010 18:24:02 14.4 C 7.91 g/m*3 14.4 C 0 km/h
214 29-09-2010 18:36:02 14 C 7.84 g/m*3 14 C 0 km/h
215 29-09-2010 18:48:01 13.6 C 7.89 g/m*3 13.6 C 0 km/h
216 29-09-2010 19:00:01 13.2 C 7.81 g/m*3 13.2 C 0 km/h
217 29-09-2010 19:12:01 13.1 C 7.76 g/m*3 13.1 C 0 km/h
218 29-09-2010 19:24:01 13 C 7.71 g/m*3 13 C 0 km/h
219 29-09-2010 19:36:02 13 C 7.6 g/m*3 13 C 0 km/h
220 29-09-2010 19:48:01 13.1 C 7.53 g/m*3 13.1 C 0 km/h
221 29-09-2010 20:00:01 13.3 C 7.63 g/m*3 13.3 C 0 km/h
222 29-09-2010 20:12:02 13.2 C 7.81 g/m*3 13.2 C 0 km/h
223 29-09-2010 20:24:01 13.2 C 7.81 g/m*3 13.2 C 0 km/h
224 29-09-2010 20:36:02 13 C 7.6 g/m*3 13 C 0 km/h
225 29-09-2010 20:48:01 12.9 C 7.66 g/m*3 12.9 C 0 km/h
Sensor: Nr:Datum:Temp:Abs-Feuchte:Windchill:Wind:
Aussen-T/F 226 29-09-2010 21:00:01 12.9 C 7.66 g/m*3 12.9 C 0 km/h
227 29-09-2010 21:12:02 12.8 C 7.84 g/m*3 12.8 C 0 km/h
228 29-09-2010 21:24:01 12.4 C 7.98 g/m*3 12.4 C 0 km/h
229 29-09-2010 21:38:05 12.2 C 8.09 g/m*3 12.2 C 0 km/h
230 29-09-2010 21:50:05 12.2 C 8.09 g/m*3 12.2 C 0 km/h
231 29-09-2010 22:02:05 12.3 C 8.25 g/m*3 12.3 C 0 km/h
232 29-09-2010 22:14:05 12.4 C 8.3 g/m*3 12.4 C 0 km/h
233 29-09-2010 22:26:05 12.4 C 8.41 g/m*3 12.4 C 0 km/h
234 29-09-2010 22:38:06 12.5 C 8.47 g/m*3 12.5 C 0 km/h
235 29-09-2010 22:50:06 12.3 C 8.36 g/m*3 12.3 C 0 km/h
236 29-09-2010 23:02:06 12 C 8.21 g/m*3 12 C 0 km/h
237 29-09-2010 23:14:06 11.8 C 8.31 g/m*3 11.8 C 0 km/h
238 29-09-2010 23:26:06 11.8 C 8.42 g/m*3 11.8 C 0 km/h
239 29-09-2010 23:38:06 12 C 8.31 g/m*3 12 C 0 km/h
240 29-09-2010 23:50:06 12.2 C 8.42 g/m*3 12.2 C 0 km/h
241 30-09-2010 00:02:06 12.4 C 8.52 g/m*3 12.4 C 0 km/h
242 30-09-2010 00:14:06 12.3 C 8.47 g/m*3 12.3 C 0 km/h
243 30-09-2010 00:26:06 12.1 C 8.36 g/m*3 12.1 C 0 km/h
244 30-09-2010 00:38:06 12.1 C 8.47 g/m*3 12.1 C 0 km/h
245 30-09-2010 00:50:06 11.9 C 8.37 g/m*3 11.9 C 0 km/h
246 30-09-2010 01:02:06 11.7 C 8.37 g/m*3 11.7 C 0 km/h
247 30-09-2010 01:14:06 11.8 C 7.89 g/m*3 11.8 C 0 km/h
248 30-09-2010 01:26:06 11.8 C 7.79 g/m*3 11.8 C 0 km/h
249 30-09-2010 01:38:06 12 C 7.46 g/m*3 12 C 0 km/h
250 30-09-2010 01:50:06 12 C 7.25 g/m*3 12 C 0 km/h
Sensor: Nr:Datum:Temp:Abs-Feuchte:Windchill:Wind:
Aussen-T/F 251 30-09-2010 02:02:06 12.1 C 7.4 g/m*3 12.1 C 0 km/h
252 30-09-2010 02:14:06 11.5 C 7.54 g/m*3 11.5 C 0 km/h
253 30-09-2010 02:26:06 11.4 C 7.7 g/m*3 11.4 C 0 km/h
254 30-09-2010 02:38:06 11.1 C 7.66 g/m*3 11.1 C 0 km/h
255 30-09-2010 02:50:07 11.2 C 7.8 g/m*3 11.2 C 0 km/h
256 30-09-2010 03:02:07 11.3 C 7.85 g/m*3 11.3 C 0 km/h
257 30-09-2010 03:14:07 11.2 C 7.91 g/m*3 11.2 C 0 km/h
258 30-09-2010 03:26:07 11 C 7.81 g/m*3 11 C 0 km/h
259 30-09-2010 03:38:07 11.1 C 7.86 g/m*3 11.1 C 0 km/h
260 30-09-2010 03:50:07 11.2 C 7.91 g/m*3 11.2 C 0 km/h
261 30-09-2010 04:02:07 11.3 C 7.96 g/m*3 11.3 C 0 km/h
262 30-09-2010 04:14:07 11.2 C 7.91 g/m*3 11.2 C 0 km/h
263 30-09-2010 04:26:07 11 C 7.81 g/m*3 11 C 0 km/h
264 30-09-2010 04:38:07 10.8 C 7.81 g/m*3 10.8 C 0 km/h
265 30-09-2010 04:50:07 10.8 C 7.91 g/m*3 10.8 C 0 km/h
266 30-09-2010 05:02:07 10.8 C 7.91 g/m*3 10.8 C 0 km/h
267 30-09-2010 05:14:07 10.8 C 7.91 g/m*3 10.8 C 0 km/h
268 30-09-2010 05:26:07 10.8 C 7.81 g/m*3 10.8 C 0 km/h
269 30-09-2010 05:38:07 10.7 C 7.76 g/m*3 10.7 C 0 km/h
270 30-09-2010 05:50:07 10.7 C 7.56 g/m*3 10.7 C 0 km/h
271 30-09-2010 06:02:07 10.8 C 7.31 g/m*3 10.8 C 0 km/h
272 30-09-2010 06:14:07 10.8 C 7.31 g/m*3 10.8 C 0 km/h
273 30-09-2010 06:26:07 10.7 C 7.27 g/m*3 10.7 C 0 km/h
274 30-09-2010 06:38:05 10.6 C 7.32 g/m*3 10.6 C 0 km/h
275 30-09-2010 06:50:02 10.6 C 7.42 g/m*3 10.6 C 0 km/h
Sensor: Nr:Datum:Temp:Abs-Feuchte:Windchill:Wind:
Aussen-T/F 276 30-09-2010 07:02:02 10.7 C 7.56 g/m*3 10.7 C 0 km/h
277 30-09-2010 07:14:02 10.7 C 7.66 g/m*3 10.7 C 0 km/h
278 30-09-2010 07:26:02 10.6 C 7.61 g/m*3 10.6 C 0 km/h
279 30-09-2010 07:38:02 10.6 C 7.71 g/m*3 10.6 C 0 km/h
280 30-09-2010 07:50:01 10.7 C 7.76 g/m*3 10.7 C 0 km/h
281 30-09-2010 08:02:01 10.7 C 7.66 g/m*3 10.7 C 0 km/h
282 30-09-2010 08:14:02 10.9 C 7.76 g/m*3 10.9 C 0 km/h
283 30-09-2010 08:26:01 10.9 C 7.76 g/m*3 10.9 C 0 km/h
284 30-09-2010 08:38:01 11 C 7.81 g/m*3 11 C 0 km/h
285 30-09-2010 08:50:01 11 C 7.81 g/m*3 11 C 0 km/h
286 30-09-2010 09:02:01 11.2 C 7.91 g/m*3 11.2 C 0 km/h
287 30-09-2010 09:14:01 11.4 C 8.01 g/m*3 11.4 C 0 km/h
288 30-09-2010 09:26:01 11.4 C 7.8 g/m*3 11.4 C 0 km/h
289 30-09-2010 09:38:01 11.5 C 7.75 g/m*3 11.5 C 0 km/h
290 30-09-2010 09:50:02 11.5 C 7.85 g/m*3 11.5 C 0 km/h
291 30-09-2010 10:02:02 11.4 C 8.01 g/m*3 11.4 C 0 km/h
292 30-09-2010 10:14:02 11.4 C 8.11 g/m*3 11.4 C 0 km/h
293 30-09-2010 10:26:03 11.7 C 8.37 g/m*3 11.7 C 0 km/h
294 30-09-2010 10:38:02 11.8 C 8.42 g/m*3 11.8 C 0 km/h
295 30-09-2010 10:50:02 11.9 C 8.47 g/m*3 11.9 C 0 km/h
296 30-09-2010 11:02:02 12 C 8.42 g/m*3 12 C 0 km/h
297 30-09-2010 11:14:02 12 C 8.42 g/m*3 12 C 0 km/h
298 30-09-2010 11:26:02 11.8 C 8.42 g/m*3 11.8 C 0 km/h
299 30-09-2010 11:38:01 11.7 C 8.47 g/m*3 11.7 C 0 km/h
300 30-09-2010 11:50:02 11.8 C 8.63 g/m*3 11.8 C 0 km/h
Sensor: Nr:Datum:Temp:Abs-Feuchte:Windchill:Wind:
Aussen-T/F 301 30-09-2010 12:02:01 11.9 C 8.79 g/m*3 11.9 C 0 km/h
302 30-09-2010 12:14:01 11.9 C 8.9 g/m*3 11.9 C 0 km/h
303 30-09-2010 12:26:02 12 C 8.95 g/m*3 12 C 0 km/h
304 30-09-2010 12:38:02 12.1 C 9.01 g/m*3 12.1 C 0 km/h
305 30-09-2010 12:50:02 12 C 9.06 g/m*3 12 C 0 km/h
306 30-09-2010 13:02:02 12.4 C 9.4 g/m*3 12.4 C 0 km/h
307 30-09-2010 13:14:02 12.6 C 9.51 g/m*3 12.6 C 0 km/h
308 30-09-2010 13:26:02 12.6 C 9.51 g/m*3 12.6 C 0 km/h
309 30-09-2010 13:38:02 12.6 C 9.62 g/m*3 12.6 C 0 km/h
310 30-09-2010 13:50:01 12.7 C 9.68 g/m*3 12.7 C 0 km/h
311 30-09-2010 14:02:02 12.9 C 9.81 g/m*3 12.9 C 0 km/h
312 30-09-2010 14:14:02 13 C 9.87 g/m*3 13 C 0 km/h
313 30-09-2010 14:26:01 12.8 C 9.86 g/m*3 12.8 C 0 km/h
314 30-09-2010 14:38:01 12.9 C 9.92 g/m*3 12.9 C 0 km/h
315 30-09-2010 14:50:01 13.1 C 10.04 g/m*3 13.1 C 0 km/h
316 30-09-2010 15:02:02 13.2 C 10.1 g/m*3 13.2 C 0 km/h
317 30-09-2010 15:14:03 13.2 C 10.1 g/m*3 13.2 C 0 km/h
318 30-09-2010 15:26:01 13.4 C 10.23 g/m*3 13.4 C 0 km/h
319 30-09-2010 15:38:01 13.3 C 10.17 g/m*3 13.3 C 0 km/h
320 30-09-2010 15:50:01 13.2 C 9.99 g/m*3 13.2 C 0 km/h
321 30-09-2010 16:02:01 13.5 C 10.29 g/m*3 13.5 C 0 km/h
322 30-09-2010 16:14:01 13.5 C 10.29 g/m*3 13.5 C 0 km/h
323 30-09-2010 16:26:02 13.6 C 10.24 g/m*3 13.6 C 0 km/h
324 30-09-2010 16:38:01 13.3 C 10.05 g/m*3 13.3 C 0 km/h
325 30-09-2010 16:50:03 13.1 C 9.93 g/m*3 13.1 C 0 km/h
Sensor: Nr:Datum:Temp:Abs-Feuchte:Windchill:Wind:
Aussen-T/F 326 30-09-2010 17:02:02 13.1 C 9.93 g/m*3 13.1 C 0 km/h
327 30-09-2010 17:14:02 13 C 9.98 g/m*3 13 C 0 km/h
328 30-09-2010 17:26:02 13 C 9.98 g/m*3 13 C 0 km/h
329 30-09-2010 17:38:02 12.9 C 10.03 g/m*3 12.9 C 0 km/h
330 30-09-2010 17:50:02 12.8 C 9.97 g/m*3 12.8 C 0 km/h
331 30-09-2010 18:02:02 12.7 C 9.91 g/m*3 12.7 C 0 km/h
332 30-09-2010 18:14:02 12.5 C 9.78 g/m*3 12.5 C 0 km/h
333 30-09-2010 18:26:02 12.5 C 9.78 g/m*3 12.5 C 0 km/h
334 30-09-2010 18:38:02 12.4 C 9.83 g/m*3 12.4 C 0 km/h
335 30-09-2010 18:50:01 12.3 C 9.77 g/m*3 12.3 C 0 km/h
336 30-09-2010 19:02:02 12.2 C 9.71 g/m*3 12.2 C 0 km/h
337 30-09-2010 19:14:02 12.1 C 9.76 g/m*3 12.1 C 0 km/h
338 30-09-2010 19:26:02 12.1 C 9.76 g/m*3 12.1 C 0 km/h
339 30-09-2010 19:38:02 12.2 C 9.82 g/m*3 12.2 C 0 km/h
340 30-09-2010 19:50:02 12.1 C 9.87 g/m*3 12.1 C 0 km/h
341 30-09-2010 20:02:02 12.2 C 9.93 g/m*3 12.2 C 0 km/h
342 30-09-2010 20:14:02 12.2 C 9.93 g/m*3 12.2 C 0 km/h
343 30-09-2010 20:26:02 12.1 C 9.87 g/m*3 12.1 C 0 km/h
344 30-09-2010 20:38:01 12.1 C 9.87 g/m*3 12.1 C 0 km/h
345 30-09-2010 20:50:02 12.2 C 10.04 g/m*3 12.2 C 0 km/h
346 30-09-2010 21:02:01 12.1 C 9.97 g/m*3 12.1 C 0 km/h
347 30-09-2010 21:14:01 12.1 C 9.97 g/m*3 12.1 C 0 km/h
348 30-09-2010 21:26:02 12.1 C 9.97 g/m*3 12.1 C 0 km/h
349 30-09-2010 21:38:01 12.1 C 9.97 g/m*3 12.1 C 0 km/h
350 30-09-2010 21:50:02 12 C 9.91 g/m*3 12 C 0 km/h
Sensor: Nr:Datum:Temp:Abs-Feuchte:Windchill:Wind:
Aussen-T/F 351 30-09-2010 22:02:02 12 C 9.91 g/m*3 12 C 0 km/h
352 30-09-2010 22:14:02 12 C 9.91 g/m*3 12 C 0 km/h
353 30-09-2010 22:26:02 11.9 C 9.96 g/m*3 11.9 C 0 km/h
354 30-09-2010 22:38:02 11.9 C 9.96 g/m*3 11.9 C 0 km/h
355 30-09-2010 22:50:01 12 C 9.91 g/m*3 12 C 0 km/h
356 30-09-2010 23:03:03 12 C 9.91 g/m*3 12 C 0 km/h
357 30-09-2010 23:15:03 11.9 C 9.96 g/m*3 11.9 C 0 km/h
358 30-09-2010 23:27:03 12 C 10.02 g/m*3 12 C 0 km/h
359 30-09-2010 23:39:03 12.1 C 10.08 g/m*3 12.1 C 0 km/h
360 30-09-2010 23:51:03 12 C 10.02 g/m*3 12 C 0 km/h
361 01-10-2010 00:03:03 12.1 C 10.08 g/m*3 12.1 C 0 km/h
362 01-10-2010 00:15:03 12 C 10.02 g/m*3 12 C 0 km/h
363 01-10-2010 00:27:03 12.1 C 10.08 g/m*3 12.1 C 0 km/h
364 01-10-2010 00:39:03 12.1 C 10.08 g/m*3 12.1 C 0 km/h
365 01-10-2010 00:51:03 11.8 C 10 g/m*3 11.8 C 0 km/h
366 01-10-2010 01:03:03 11.6 C 9.87 g/m*3 11.6 C 0 km/h
367 01-10-2010 01:15:04 11.7 C 9.94 g/m*3 11.7 C 0 km/h
368 01-10-2010 01:27:04 11.6 C 9.87 g/m*3 11.6 C 0 km/h
369 01-10-2010 01:39:04 11.5 C 9.81 g/m*3 11.5 C 0 km/h
370 01-10-2010 01:51:04 11.5 C 9.81 g/m*3 11.5 C 0 km/h
371 01-10-2010 02:03:04 11.5 C 9.81 g/m*3 11.5 C 0 km/h
372 01-10-2010 02:15:04 11.4 C 9.75 g/m*3 11.4 C 0 km/h
373 01-10-2010 02:27:04 11.4 C 9.75 g/m*3 11.4 C 0 km/h
374 01-10-2010 02:39:04 11.4 C 9.75 g/m*3 11.4 C 0 km/h
375 01-10-2010 02:51:04 11.5 C 9.81 g/m*3 11.5 C 0 km/h
Sensor: Nr:Datum:Temp:Abs-Feuchte:Windchill:Wind:
Aussen-T/F 376 01-10-2010 03:03:04 11.5 C 9.81 g/m*3 11.5 C 0 km/h
377 01-10-2010 03:15:04 11.5 C 9.81 g/m*3 11.5 C 0 km/h
378 01-10-2010 03:27:04 11.5 C 9.81 g/m*3 11.5 C 0 km/h
379 01-10-2010 03:39:04 11.5 C 9.81 g/m*3 11.5 C 0 km/h
380 01-10-2010 03:51:04 11.8 C 10 g/m*3 11.8 C 0 km/h
381 01-10-2010 04:03:04 11.7 C 9.94 g/m*3 11.7 C 0 km/h
382 01-10-2010 04:15:04 11.7 C 9.94 g/m*3 11.7 C 0 km/h
383 01-10-2010 04:27:04 11.7 C 9.94 g/m*3 11.7 C 0 km/h
384 01-10-2010 04:39:04 11.7 C 9.94 g/m*3 11.7 C 0 km/h
385 01-10-2010 04:51:04 11.7 C 9.94 g/m*3 11.7 C 0 km/h
386 01-10-2010 05:03:04 11.7 C 9.94 g/m*3 11.7 C 0 km/h
387 01-10-2010 05:15:04 11.7 C 9.94 g/m*3 11.7 C 0 km/h
388 01-10-2010 05:27:04 11.7 C 9.94 g/m*3 11.7 C 0 km/h
389 01-10-2010 05:39:04 11.5 C 9.81 g/m*3 11.5 C 0 km/h
390 01-10-2010 05:51:05 11.5 C 9.81 g/m*3 11.5 C 0 km/h
391 01-10-2010 06:03:05 11.4 C 9.75 g/m*3 11.4 C 0 km/h
392 01-10-2010 06:15:05 11.4 C 9.75 g/m*3 11.4 C 0 km/h
393 01-10-2010 06:27:05 11.4 C 9.75 g/m*3 11.4 C 0 km/h
394 01-10-2010 06:39:05 11.4 C 9.75 g/m*3 11.4 C 0 km/h
395 01-10-2010 06:51:05 11.4 C 9.75 g/m*3 11.4 C 0 km/h
396 01-10-2010 07:03:05 11.3 C 9.69 g/m*3 11.3 C 0 km/h
397 01-10-2010 07:15:02 11.3 C 9.69 g/m*3 11.3 C 0 km/h
398 01-10-2010 07:27:02 11 C 9.51 g/m*3 11 C 0 km/h
399 01-10-2010 07:39:02 10.8 C 9.39 g/m*3 10.8 C 0 km/h
400 01-10-2010 07:51:02 10.6 C 9.27 g/m*3 10.6 C 0 km/h
Sensor: Nr:Datum:Temp:Abs-Feuchte:Windchill:Wind:
Aussen-T/F 401 01-10-2010 08:03:02 10.4 C 9.16 g/m*3 10.4 C 0 km/h
402 01-10-2010 08:15:02 10.3 C 9.1 g/m*3 10.3 C 0 km/h
403 01-10-2010 08:27:02 10.2 C 9.04 g/m*3 10.2 C 0 km/h
404 01-10-2010 08:39:02 10.2 C 9.04 g/m*3 10.2 C 0 km/h
405 01-10-2010 08:51:02 10.4 C 9.16 g/m*3 10.4 C 0 km/h
406 01-10-2010 09:03:02 10.7 C 9.33 g/m*3 10.7 C 0 km/h
407 01-10-2010 09:15:01 11.1 C 9.57 g/m*3 11.1 C 0 km/h
408 01-10-2010 09:27:01 11.3 C 9.69 g/m*3 11.3 C 0 km/h
409 01-10-2010 09:39:02 11.4 C 9.75 g/m*3 11.4 C 0 km/h
410 01-10-2010 09:51:02 11.7 C 9.94 g/m*3 11.7 C 0 km/h
411 01-10-2010 10:03:02 11.7 C 9.94 g/m*3 11.7 C 0 km/h
412 01-10-2010 10:15:02 11.7 C 9.83 g/m*3 11.7 C 0 km/h
413 01-10-2010 10:27:02 11.6 C 9.56 g/m*3 11.6 C 0 km/h
414 01-10-2010 10:39:02 11.7 C 9.52 g/m*3 11.7 C 0 km/h
415 01-10-2010 10:51:02 11.9 C 9.32 g/m*3 11.9 C 0 km/h
416 01-10-2010 11:03:02 12.1 C 9.12 g/m*3 12.1 C 0 km/h
417 01-10-2010 11:15:02 12.2 C 8.85 g/m*3 12.2 C 0 km/h
418 01-10-2010 11:27:02 12.5 C 8.91 g/m*3 12.5 C 0 km/h
419 01-10-2010 11:39:02 12.5 C 8.69 g/m*3 12.5 C 0 km/h
420 01-10-2010 11:51:02 13 C 8.62 g/m*3 13 C 0 km/h
421 01-10-2010 12:03:02 12.8 C 8.51 g/m*3 12.8 C 0 km/h
422 01-10-2010 12:15:02 12.8 C 8.62 g/m*3 12.8 C 0 km/h
423 01-10-2010 12:27:02 12.7 C 8.46 g/m*3 12.7 C 0 km/h
424 01-10-2010 12:39:02 12.4 C 8.41 g/m*3 12.4 C 0 km/h
425 01-10-2010 12:51:02 12.7 C 8.46 g/m*3 12.7 C 0 km/h
Sensor: Nr:Datum:Temp:Abs-Feuchte:Windchill:Wind:
Aussen-T/F 426 01-10-2010 13:03:01 12.8 C 8.4 g/m*3 12.8 C 0 km/h
427 01-10-2010 13:15:02 13.3 C 8.32 g/m*3 13.3 C 0 km/h
428 01-10-2010 13:27:02 13.4 C 8.14 g/m*3 13.4 C 0 km/h
429 01-10-2010 13:39:01 13.1 C 7.76 g/m*3 13.1 C 0 km/h
430 01-10-2010 13:51:02 13.3 C 7.97 g/m*3 13.3 C 0 km/h
431 01-10-2010 14:03:01 13.1 C 7.87 g/m*3 13.1 C 0 km/h
432 01-10-2010 14:15:01 13.2 C 8.04 g/m*3 13.2 C 0 km/h
433 01-10-2010 14:27:01 13.3 C 7.86 g/m*3 13.3 C 0 km/h
434 01-10-2010 14:39:02 13.2 C 7.92 g/m*3 13.2 C 0 km/h
435 01-10-2010 14:51:02 13.8 C 7.98 g/m*3 13.8 C 0 km/h
436 01-10-2010 15:03:02 14.4 C 7.91 g/m*3 14.4 C 0 km/h
437 01-10-2010 15:15:02 15.2 C 7.92 g/m*3 15.2 C 0 km/h
438 01-10-2010 15:27:02 15.3 C 7.7 g/m*3 15.3 C 0 km/h
439 01-10-2010 15:39:02 15.7 C 7.76 g/m*3 15.7 C 0 km/h
440 01-10-2010 15:51:02 15.9 C 7.58 g/m*3 15.9 C 0 km/h
441 01-10-2010 16:03:02 16 C 7.49 g/m*3 16 C 0 km/h
442 01-10-2010 16:15:02 16.2 C 7.17 g/m*3 16.2 C 0 km/h
443 01-10-2010 16:27:02 17.1 C 7.42 g/m*3 17.1 C 0 km/h
444 01-10-2010 16:39:02 17.2 C 7.91 g/m*3 17.2 C 0 km/h
445 01-10-2010 16:51:02 17.2 C 8.05 g/m*3 17.2 C 0 km/h
446 01-10-2010 17:03:02 17.5 C 7.9 g/m*3 17.5 C 0 km/h
447 01-10-2010 17:15:02 16.6 C 8.19 g/m*3 16.6 C 0 km/h
448 01-10-2010 17:27:02 16 C 8.31 g/m*3 16 C 0 km/h
449 01-10-2010 17:39:02 15.4 C 8.54 g/m*3 15.4 C 0 km/h
450 01-10-2010 17:51:02 15.2 C 8.7 g/m*3 15.2 C 0 km/h
Sensor: Nr:Datum:Temp:Abs-Feuchte:Windchill:Wind:
Aussen-T/F 451 01-10-2010 18:03:02 14.8 C 8.74 g/m*3 14.8 C 0 km/h
452 01-10-2010 18:15:02 14.7 C 8.94 g/m*3 14.7 C 0 km/h
453 01-10-2010 18:27:02 14.5 C 8.83 g/m*3 14.5 C 0 km/h
454 01-10-2010 18:39:01 14.1 C 8.74 g/m*3 14.1 C 0 km/h
455 01-10-2010 18:51:02 13.6 C 8.71 g/m*3 13.6 C 0 km/h
456 01-10-2010 19:03:01 12.8 C 8.62 g/m*3 12.8 C 0 km/h
457 01-10-2010 19:15:02 12.5 C 8.58 g/m*3 12.5 C 0 km/h
458 01-10-2010 19:27:02 12.2 C 8.52 g/m*3 12.2 C 0 km/h
459 01-10-2010 19:39:02 11.8 C 8.53 g/m*3 11.8 C 0 km/h
460 01-10-2010 19:51:02 11.6 C 8.52 g/m*3 11.6 C 0 km/h
461 01-10-2010 20:03:02 11.4 C 8.42 g/m*3 11.4 C 0 km/h
462 01-10-2010 20:15:02 11.3 C 8.47 g/m*3 11.3 C 0 km/h
463 01-10-2010 20:27:02 11.2 C 8.51 g/m*3 11.2 C 0 km/h
464 01-10-2010 20:39:02 11.2 C 8.51 g/m*3 11.2 C 0 km/h
465 01-10-2010 20:51:01 11.2 C 8.62 g/m*3 11.2 C 0 km/h
466 01-10-2010 21:03:02 11.1 C 8.56 g/m*3 11.1 C 0 km/h
467 01-10-2010 21:15:01 11 C 8.51 g/m*3 11 C 0 km/h
468 01-10-2010 21:27:01 10.8 C 8.5 g/m*3 10.8 C 0 km/h
469 01-10-2010 21:39:01 10.7 C 8.55 g/m*3 10.7 C 0 km/h
470 01-10-2010 21:51:01 10.7 C 8.55 g/m*3 10.7 C 0 km/h
471 01-10-2010 22:03:02 10.8 C 8.7 g/m*3 10.8 C 0 km/h
472 01-10-2010 22:15:02 10.9 C 8.75 g/m*3 10.9 C 0 km/h
473 01-10-2010 22:27:02 11 C 8.81 g/m*3 11 C 0 km/h
474 01-10-2010 22:39:01 11.1 C 8.76 g/m*3 11.1 C 0 km/h
475 01-10-2010 22:52:04 11.1 C 8.76 g/m*3 11.1 C 0 km/h
Sensor: Nr:Datum:Temp:Abs-Feuchte:Windchill:Wind:
Aussen-T/F 476 01-10-2010 23:04:04 11.1 C 8.76 g/m*3 11.1 C 0 km/h
477 01-10-2010 23:16:04 11.1 C 8.76 g/m*3 11.1 C 0 km/h
478 01-10-2010 23:28:04 11 C 8.71 g/m*3 11 C 0 km/h
479 01-10-2010 23:40:04 11 C 8.71 g/m*3 11 C 0 km/h
480 01-10-2010 23:52:04 11.1 C 8.76 g/m*3 11.1 C 0 km/h
481 02-10-2010 00:04:04 11.2 C 8.82 g/m*3 11.2 C 0 km/h
482 02-10-2010 00:16:04 11.2 C 8.72 g/m*3 11.2 C 0 km/h
483 02-10-2010 00:28:04 11.2 C 8.72 g/m*3 11.2 C 0 km/h
484 02-10-2010 00:40:04 11.1 C 8.66 g/m*3 11.1 C 0 km/h
485 02-10-2010 00:52:04 10.9 C 8.65 g/m*3 10.9 C 0 km/h
486 02-10-2010 01:04:04 10.9 C 8.65 g/m*3 10.9 C 0 km/h
487 02-10-2010 01:16:04 11 C 8.71 g/m*3 11 C 0 km/h
488 02-10-2010 01:28:05 10.9 C 8.75 g/m*3 10.9 C 0 km/h
489 02-10-2010 01:40:05 11 C 8.81 g/m*3 11 C 0 km/h
490 02-10-2010 01:52:05 10.8 C 8.8 g/m*3 10.8 C 0 km/h
491 02-10-2010 02:04:05 10.8 C 8.8 g/m*3 10.8 C 0 km/h
492 02-10-2010 02:16:05 10.8 C 8.9 g/m*3 10.8 C 0 km/h
493 02-10-2010 02:28:05 11 C 9.01 g/m*3 11 C 0 km/h
494 02-10-2010 02:40:05 11.1 C 9.07 g/m*3 11.1 C 0 km/h
495 02-10-2010 02:52:05 11.1 C 9.07 g/m*3 11.1 C 0 km/h
496 02-10-2010 03:04:05 11.1 C 9.07 g/m*3 11.1 C 0 km/h
497 02-10-2010 03:16:05 11.1 C 9.17 g/m*3 11.1 C 0 km/h
498 02-10-2010 03:28:05 11.1 C 9.17 g/m*3 11.1 C 0 km/h
499 02-10-2010 03:40:05 11.1 C 9.17 g/m*3 11.1 C 0 km/h
500 02-10-2010 03:52:05 11.1 C 9.17 g/m*3 11.1 C 0 km/h
Sensor: Nr:Datum:Temp:Abs-Feuchte:Windchill:Wind:
Aussen-T/F 501 02-10-2010 04:04:05 11.1 C 9.27 g/m*3 11.1 C 0 km/h
502 02-10-2010 04:16:05 11.1 C 9.27 g/m*3 11.1 C 0 km/h
503 02-10-2010 04:28:05 11.1 C 9.27 g/m*3 11.1 C 0 km/h
504 02-10-2010 04:40:05 11.1 C 9.27 g/m*3 11.1 C 0 km/h
505 02-10-2010 04:52:05 11 C 9.21 g/m*3 11 C 0 km/h
506 02-10-2010 05:04:05 11 C 9.21 g/m*3 11 C 0 km/h
507 02-10-2010 05:16:05 11 C 9.31 g/m*3 11 C 0 km/h
508 02-10-2010 05:28:05 11 C 9.31 g/m*3 11 C 0 km/h
509 02-10-2010 05:40:05 10.9 C 9.35 g/m*3 10.9 C 0 km/h
510 02-10-2010 05:52:05 11 C 9.31 g/m*3 11 C 0 km/h
511 02-10-2010 06:04:06 11 C 9.31 g/m*3 11 C 0 km/h
512 02-10-2010 06:16:06 11 C 9.41 g/m*3 11 C 0 km/h
513 02-10-2010 06:28:06 11 C 9.41 g/m*3 11 C 0 km/h
514 02-10-2010 06:40:06 11 C 9.41 g/m*3 11 C 0 km/h
515 02-10-2010 06:52:06 11 C 9.41 g/m*3 11 C 0 km/h
516 02-10-2010 07:04:06 11 C 9.41 g/m*3 11 C 0 km/h
517 02-10-2010 07:16:06 11.1 C 9.47 g/m*3 11.1 C 0 km/h
518 02-10-2010 07:28:06 11.2 C 9.63 g/m*3 11.2 C 0 km/h
519 02-10-2010 07:40:03 11.2 C 9.63 g/m*3 11.2 C 0 km/h
520 02-10-2010 07:52:02 11.2 C 9.63 g/m*3 11.2 C 0 km/h
521 02-10-2010 08:04:02 11.3 C 9.69 g/m*3 11.3 C 0 km/h
522 02-10-2010 08:16:03 11.3 C 9.69 g/m*3 11.3 C 0 km/h
523 02-10-2010 08:28:03 11.4 C 9.75 g/m*3 11.4 C 0 km/h
524 02-10-2010 08:40:02 11.5 C 9.81 g/m*3 11.5 C 0 km/h
525 02-10-2010 08:52:02 11.8 C 10 g/m*3 11.8 C 0 km/h
Sensor: Nr:Datum:Temp:Abs-Feuchte:Windchill:Wind:
Aussen-T/F 526 02-10-2010 09:04:02 11.8 C 10 g/m*3 11.8 C 0 km/h
527 02-10-2010 09:16:02 11.8 C 10 g/m*3 11.8 C 0 km/h
528 02-10-2010 09:28:02 12 C 10.12 g/m*3 12 C 0 km/h
529 02-10-2010 09:40:02 12.1 C 10.19 g/m*3 12.1 C 0 km/h
530 02-10-2010 09:52:02 12.3 C 10.32 g/m*3 12.3 C 0 km/h
531 02-10-2010 10:04:02 12.6 C 10.51 g/m*3 12.6 C 0 km/h
532 02-10-2010 10:16:02 13 C 10.66 g/m*3 13 C 0 km/h
533 02-10-2010 10:28:02 13 C 10.66 g/m*3 13 C 0 km/h
534 02-10-2010 10:40:01 13.3 C 10.86 g/m*3 13.3 C 0 km/h
535 02-10-2010 10:52:02 13.8 C 11.08 g/m*3 13.8 C 0 km/h
536 02-10-2010 11:04:01 14 C 11.1 g/m*3 14 C 0 km/h
537 02-10-2010 11:16:01 14.4 C 11.37 g/m*3 14.4 C 0 km/h
538 02-10-2010 11:28:01 14.4 C 11.37 g/m*3 14.4 C 0 km/h
539 02-10-2010 11:40:02 14.4 C 11.25 g/m*3 14.4 C 0 km/h
540 02-10-2010 11:52:02 14.4 C 11.25 g/m*3 14.4 C 0 km/h
541 02-10-2010 12:04:02 14.5 C 11.32 g/m*3 14.5 C 0 km/h
542 02-10-2010 12:16:02 14.7 C 11.46 g/m*3 14.7 C 0 km/h
543 02-10-2010 12:28:02 15.2 C 11.68 g/m*3 15.2 C 0 km/h
544 02-10-2010 12:40:02 15.4 C 11.69 g/m*3 15.4 C 0 km/h
545 02-10-2010 12:52:02 15.4 C 11.43 g/m*3 15.4 C 0 km/h
546 02-10-2010 13:04:02 15.5 C 11.5 g/m*3 15.5 C 0 km/h
547 02-10-2010 13:16:02 15.6 C 11.57 g/m*3 15.6 C 0 km/h
548 02-10-2010 13:28:02 15.7 C 11.64 g/m*3 15.7 C 0 km/h
549 02-10-2010 13:40:02 15.9 C 11.65 g/m*3 15.9 C 0 km/h
550 02-10-2010 13:52:01 16 C 11.31 g/m*3 16 C 0 km/h
Sensor: Nr:Datum:Temp:Abs-Feuchte:Windchill:Wind:
Aussen-T/F 551 02-10-2010 14:04:01 15.7 C 11.24 g/m*3 15.7 C 0 km/h
552 02-10-2010 14:16:02 15.4 C 11.17 g/m*3 15.4 C 0 km/h
553 02-10-2010 14:28:02 15.4 C 11.3 g/m*3 15.4 C 0 km/h
554 02-10-2010 14:40:01 15.7 C 11.64 g/m*3 15.7 C 0 km/h
555 02-10-2010 14:52:03 16 C 11.72 g/m*3 16 C 0 km/h
556 02-10-2010 15:04:02 15.8 C 11.71 g/m*3 15.8 C 0 km/h
557 02-10-2010 15:16:02 15.9 C 11.65 g/m*3 15.9 C 0 km/h
558 02-10-2010 15:28:02 16 C 11.44 g/m*3 16 C 0 km/h
559 02-10-2010 15:40:02 16.2 C 11.31 g/m*3 16.2 C 0 km/h
560 02-10-2010 15:52:02 16.1 C 11.24 g/m*3 16.1 C 0 km/h
561 02-10-2010 16:04:02 16.2 C 11.31 g/m*3 16.2 C 0 km/h
562 02-10-2010 16:16:02 16.1 C 10.97 g/m*3 16.1 C 0 km/h
563 02-10-2010 16:28:02 16.2 C 11.03 g/m*3 16.2 C 0 km/h
564 02-10-2010 16:40:02 16.4 C 11.17 g/m*3 16.4 C 0 km/h
565 02-10-2010 16:52:02 16.3 C 10.96 g/m*3 16.3 C 0 km/h
566 02-10-2010 17:04:01 16.4 C 11.03 g/m*3 16.4 C 0 km/h
567 02-10-2010 17:16:01 16.3 C 10.82 g/m*3 16.3 C 0 km/h
568 02-10-2010 17:28:01 16.3 C 10.96 g/m*3 16.3 C 0 km/h
569 02-10-2010 17:40:02 16.3 C 10.96 g/m*3 16.3 C 0 km/h
570 02-10-2010 17:52:02 16.1 C 10.83 g/m*3 16.1 C 0 km/h
571 02-10-2010 18:04:02 15.9 C 10.97 g/m*3 15.9 C 0 km/h
572 02-10-2010 18:16:02 15.6 C 10.91 g/m*3 15.6 C 0 km/h
573 02-10-2010 18:28:02 15.3 C 10.84 g/m*3 15.3 C 0 km/h
574 02-10-2010 18:40:02 15.2 C 10.9 g/m*3 15.2 C 0 km/h
575 02-10-2010 18:52:02 15.1 C 10.97 g/m*3 15.1 C 0 km/h
Sensor: Nr:Datum:Temp:Abs-Feuchte:Windchill:Wind:
Aussen-T/F 576 02-10-2010 19:04:02 15 C 10.9 g/m*3 15 C 0 km/h
577 02-10-2010 19:16:02 15 C 10.9 g/m*3 15 C 0 km/h
578 02-10-2010 19:28:02 15 C 10.9 g/m*3 15 C 0 km/h
579 02-10-2010 19:40:02 14.9 C 10.96 g/m*3 14.9 C 0 km/h
580 02-10-2010 19:52:01 14.8 C 11.02 g/m*3 14.8 C 0 km/h
581 02-10-2010 20:04:01 14.8 C 11.02 g/m*3 14.8 C 0 km/h
582 02-10-2010 20:16:02 14.9 C 11.22 g/m*3 14.9 C 0 km/h
583 02-10-2010 20:28:02 14.9 C 11.22 g/m*3 14.9 C 0 km/h
584 02-10-2010 20:40:01 14.8 C 11.02 g/m*3 14.8 C 0 km/h
585 02-10-2010 20:52:01 14.6 C 11.01 g/m*3 14.6 C 0 km/h
586 02-10-2010 21:04:01 14.6 C 11.01 g/m*3 14.6 C 0 km/h
587 02-10-2010 21:16:02 14.5 C 10.94 g/m*3 14.5 C 0 km/h
588 02-10-2010 21:28:02 14.5 C 11.07 g/m*3 14.5 C 0 km/h
589 02-10-2010 21:40:01 14.5 C 11.07 g/m*3 14.5 C 0 km/h
590 02-10-2010 21:53:02 14.4 C 11 g/m*3 14.4 C 0 km/h
591 02-10-2010 22:05:02 14.4 C 11 g/m*3 14.4 C 0 km/h
592 02-10-2010 22:17:02 14.4 C 11.13 g/m*3 14.4 C 0 km/h
593 02-10-2010 22:29:02 14.4 C 11.13 g/m*3 14.4 C 0 km/h
594 02-10-2010 22:41:02 14.5 C 11.19 g/m*3 14.5 C 0 km/h
595 02-10-2010 22:53:02 14.7 C 11.33 g/m*3 14.7 C 0 km/h
596 02-10-2010 23:05:02 14.7 C 11.33 g/m*3 14.7 C 0 km/h
597 02-10-2010 23:17:02 14.6 C 11.14 g/m*3 14.6 C 0 km/h
598 02-10-2010 23:29:03 14.5 C 11.07 g/m*3 14.5 C 0 km/h
599 02-10-2010 23:41:03 14.5 C 11.07 g/m*3 14.5 C 0 km/h
600 02-10-2010 23:53:03 14.5 C 11.07 g/m*3 14.5 C 0 km/h

Legende:
   Min
   Max


Maximal/Minimal-Werte vom 23.02.2003 - 30.09.2020

Sensor Min Max Avg
Temp
(Aussen-T/F)
-16.4 °C
20-12-2009  01:30:01
40.4 °C
25-07-2019  16:20:00
11.32 °C

Die Daten stammen von einer Davis Vantage Pro 2 Wetter-Station und werden unter Linux mit der Software wview2wettercgi und aufbereitet. Alle Angaben erfolgen ohne Gewähr für ihre Vollständigkeit oder Richtigkeit.
Kontakt: Rainer Krienke krienke@uni-koblenz.de . Meine Webseiten an der Uni Koblenz oder privat.
Version: $Revision: 0.78 $